Location: Sigmaringen
(48.0900°N, 9.2120°E)
Time: 22:36:12
(UTC+02:00)

ISS - Visible Passes

Search period start: 26 July 2017 00:00
Search period end: 05 August 2017 00:00
Orbit: 400 x 408 km, 51.6° (Epoch: 27 July)

Date Brightness Start Highest point End Pass type
(mag) Time Alt. Az. Time Alt. Az. Time Alt. Az.
26 Jul -2.6 00:51:45 10° WNW 00:54:54 42° N 00:56:42 21° ENE visible
26 Jul -1.6 02:28:20 10° WNW 02:29:15 17° WNW 02:29:15 17° WNW visible
26 Jul -3.9 22:22:33 10° WSW 22:25:48 84° SSE 22:29:04 10° ENE visible
26 Jul -2.6 23:59:20 10° WNW 00:02:28 43° N 00:05:20 12° ENE visible
27 Jul -2.2 01:36:02 10° WNW 01:37:55 30° NW 01:37:55 30° NW visible
27 Jul -2.9 23:06:53 10° W 23:10:03 49° N 23:13:15 10° ENE visible
28 Jul -2.9 00:43:42 10° WNW 00:46:53 47° N 00:46:58 47° NNE visible
28 Jul -3.3 22:14:26 10° W 22:17:40 62° NNW 22:20:54 10° ENE visible
28 Jul -2.7 23:51:19 10° WNW 23:54:26 43° N 23:56:08 22° ENE visible
29 Jul -1.4 01:27:52 10° WNW 01:28:45 17° WNW 01:28:45 17° WNW visible
29 Jul -2.6 22:58:52 10° WNW 23:02:00 42° N 23:05:07 10° ENE visible
30 Jul -2.8 00:35:31 10° WNW 00:37:58 44° NW 00:37:58 44° NW visible
30 Jul -2.8 22:06:22 10° W 22:09:32 46° N 22:12:42 10° ENE visible
30 Jul -3.1 23:43:09 10° WNW 23:46:21 50° NNE 23:47:12 38° ENE visible
31 Jul -0.9 01:19:41 10° WNW 01:19:49 11° WNW 01:19:49 11° WNW visible
31 Jul -2.8 22:50:44 10° WNW 22:53:53 44° N 22:56:28 14° ENE visible
01 Aug -2.3 00:27:16 10° WNW 00:29:05 30° WNW 00:29:05 30° WNW visible
01 Aug -2.6 21:58:16 10° WNW 22:01:23 42° N 22:04:32 10° ENE visible
01 Aug -3.8 23:34:53 10° WNW 23:38:08 72° NNE 23:38:22 68° ENE visible
02 Aug -3.2 22:42:29 10° WNW 22:45:42 54° NNE 22:47:40 21° E visible
03 Aug -1.7 00:19:02 10° WNW 00:20:18 20° W 00:20:18 20° W visible
03 Aug -2.9 21:50:03 10° WNW 21:53:13 45° N 21:56:22 10° E visible
03 Aug -3.8 23:26:34 10° WNW 23:29:36 65° SW 23:29:36 65° SW visible
04 Aug -3.9 22:34:08 10° WNW 22:37:24 81° NNE 22:38:56 29° ESE visible
